Flag for Germany Weather past 2 weeks in Calw, Baden-Württemberg, Germany

Now
81 °F

Passing clouds.


Feels Like: 83 °F
Forecast: 65 / 94 °F
Wind: 2 mph from Southeast

Location: Stuttgart-Echterdingen

Current Time: Jul 4, 2015 at 10:36:08 AM

Latest Report: Jul 4, 2015 at 10:00 AM


Visibility: 19 mi

Pressure: 30.12 "Hg

Humidity: 54%

Dew point: 63 °F

Location of CalwLocation

Historic Weather in Calw — Graph

°F

Calw temperature yesterday

Maximum temperature yesterday: 92 °F (at 3:00 PM)
Minimum temperature yesterday: 68 °F (at 7:00 AM)
Average temperature yesterday: 80 °F

Past Weeks' High & Low Weather Summary

 TemperatureHumidityPressure
High92 °F (Jul 3, 3:00 PM)97% (Jun 24, 7:00 AM)30.24 "Hg (Jun 24, 7:00 AM)
Low46 °F (Jun 24, 6:00 AM)29% (Jul 1, 2:00 PM)29.74 "Hg (Jun 22, 9:00 PM)
Average65 °F68%30.10 "Hg
* Reported Jun 19 9:00 AM — Jul 4 9:00 AM, Calw, Weather by CustomWeather, © 2015

Note: Actual official high and low records may vary slightly from our data, if they occured in-between our weather recording intervals... More about our weather records

Advertising

Calw weather history for previous 24 hours

 ConditionsComfort  
Time TempWeatherWind HumidityBarometerVisibility
9:00 AM
Sat, Jul 4
77 °FPassing clouds.2 mph70%30.13 "Hg19 mi
8:00 AM72 °FPassing clouds.1 mph82%30.14 "Hg19 mi
7:00 AM66 °FPassing clouds.1 mph90%30.16 "Hg19 mi
6:00 AM65 °FFog.2 mph92%30.16 "Hg19 mi
4:00 AM66 °FClear.1 mph88%30.15 "Hg16 mi
3:00 AM67 °FClear.1 mph90%30.17 "Hg16 mi
2:00 AM69 °FClear.1 mph89%30.16 "Hg16 mi
1:00 AM71 °FClear.No wind88%30.17 "Hg16 mi
12:00 AM73 °FPassing clouds.1 mph82%30.18 "Hg16 mi
10:00 PM
Fri, Jul 3
78 °FPassing clouds.1 mph73%30.15 "Hg19 mi
9:00 PM81 °FOvercast.1 mph69%30.14 "Hg19 mi
8:00 PM84 °FOvercast.2 mph66%30.14 "Hg19 mi
7:00 PM85 °FOvercast.No wind53%30.14 "Hg22 mi
6:00 PM88 °FOvercast.2 mph45%30.14 "Hg22 mi
4:00 PM90 °FPartly sunny.1 mph34%30.15 "Hg25 mi
3:00 PM92 °FPartly sunny.1 mph37%30.15 "Hg25 mi
2:00 PM91 °FPassing clouds.2 mph39%30.16 "Hg22 mi
1:00 PM90 °FPassing clouds.1 mph42%30.17 "Hg19 mi
12:00 PM87 °FPassing clouds.1 mph48%30.18 "Hg19 mi
10:00 AM82 °FPassing clouds.1 mph63%30.19 "Hg16 mi
Weather by CustomWeather, © 2015

See weather overviewHow to use our weather pages